Weather History for KAQP - May, 2012

Change the Weather History Date:

Sunday, May 13, 2012

  Actual Average Record
Temperature  
Mean Temperature 57 °F -  
Max Temperature 75 °F 65 °F 89 °F (2007)
Min Temperature 39 °F 42 °F 26 °F (1997)
Degree Days  
Heating Degree Days 8    
Growing Degree Days 7 (Base 50)    
Moisture  
Dew Point 33 °F    
Average Humidity 41    
Maximum Humidity 87    
Minimum Humidity 17    
Precipitation  
Precipitation 0.00 in - - ()
Sea Level Pressure  
Sea Level Pressure 30.17 in    
Wind  
Wind Speed 6 mph (WSW)    
Max Wind Speed 18 mph    
Max Gust Speed 24 mph    
Visibility 10 miles    
Events      
Averages and records for this station are not official NWS values.
T = Trace of Precipitation, MM = Missing Value Source: NWS Daily Summary

Daily Weather History Graph

Daily Weather History Graph

Search for Another Location

Airport or City:

Trip Planner

Search our weather history database for the weather conditions in past years. The results will help you decide how hot, cold, wet, or windy it might be!

Date:

Astronomy

May. 13, 2012 Rise Set
Actual Time 5:55 AM CDT 8:45 PM CDT
Civil Twilight 5:21 AM CDT 9:19 PM CDT
Nautical Twilight 4:38 AM CDT 10:03 PM CDT
Astronomical Twilight 3:47 AM CDT 10:54 PM CDT
Moon 2:20 AM CDT (5/13) 1:49 PM CDT (5/13)
Length of Visible Light 15h 57m
Length of Day
14h 49m
Last Quarter, 42% of the Moon is Illuminated
May 13
Last Quarter
May 20
New
May 28
First Quarter
Jun 4
Full
Jun 11
Last Quarter

Hourly Weather History & Observations

Time (CDT) Temp. Windchill Dew Point Humidity Pressure Visibility Wind Dir Wind Speed Gust Speed Precip Events Conditions
12:14 AM 48.2 °F - 35.6 °F 62% 30.28 in 10.0 mi Calm Calm - N/A   Clear
12:34 AM 48.2 °F - 35.6 °F 62% 30.28 in 10.0 mi Calm Calm - N/A   Clear
12:54 AM 48.2 °F - 32.0 °F 54% 30.28 in 10.0 mi SSW 4.6 mph - N/A   Clear
1:14 AM 50.0 °F - 33.8 °F 54% 30.27 in 10.0 mi SSW 5.8 mph - N/A   Clear
1:55 AM 48.2 °F - 33.8 °F 58% 30.27 in 10.0 mi Calm Calm - N/A   Clear
2:14 AM 46.4 °F - 33.8 °F 62% 30.27 in 10.0 mi Calm Calm - N/A   Clear
2:34 AM 44.6 °F 43.1 °F 33.8 °F 66% 30.26 in 10.0 mi SSW 3.5 mph - N/A   Clear
2:54 AM 44.6 °F 43.1 °F 35.6 °F 71% 30.26 in 10.0 mi SSW 3.5 mph - N/A   Clear
3:14 AM 44.6 °F - 35.6 °F 71% 30.26 in 10.0 mi Calm Calm - N/A   Clear
3:34 AM 44.6 °F - 33.8 °F 66% 30.26 in 10.0 mi Calm Calm - N/A   Clear
3:54 AM 42.8 °F 41.1 °F 32.0 °F 66% 30.26 in 10.0 mi SW 3.5 mph - N/A   Clear
4:14 AM 41.0 °F - 33.8 °F 76% 30.26 in 10.0 mi Calm Calm - N/A   Clear
4:34 AM 42.8 °F - 33.8 °F 70% 30.26 in 10.0 mi Calm Calm - N/A   Clear
4:54 AM 39.2 °F - 33.8 °F 81% 30.26 in 10.0 mi Calm Calm - N/A   Clear
5:14 AM 44.6 °F 43.1 °F 39.2 °F 81% 30.26 in 10.0 mi SSW 3.5 mph - N/A   Clear
5:34 AM 42.8 °F - 35.6 °F 76% 30.26 in 10.0 mi Calm Calm - N/A   Clear
6:15 AM 39.2 °F - 33.8 °F 81% 30.26 in 10.0 mi Calm Calm - N/A   Clear
6:34 AM 39.2 °F - 35.6 °F 87% 30.26 in 10.0 mi Calm Calm - N/A   Clear
7:14 AM 44.6 °F - 39.2 °F 81% 30.26 in 10.0 mi Calm Calm - N/A   Clear
7:34 AM 48.2 °F - 37.4 °F 66% 30.26 in 10.0 mi Calm Calm - N/A   Clear
7:54 AM 51.8 °F - 37.4 °F 58% 30.25 in 10.0 mi SW 3.5 mph - N/A   Clear
8:14 AM 53.6 °F - 35.6 °F 51% 30.25 in 7.0 mi WSW 5.8 mph - N/A   Clear
8:34 AM 55.4 °F - 37.4 °F 51% 30.25 in 10.0 mi WSW 6.9 mph - N/A   Clear
8:54 AM 57.2 °F - 35.6 °F 44% 30.25 in 10.0 mi WSW 6.9 mph - N/A   Clear
9:14 AM 60.8 °F - 35.6 °F 39% 30.25 in 10.0 mi WSW 6.9 mph - N/A   Clear
9:34 AM 62.6 °F - 33.8 °F 34% 30.24 in 10.0 mi WSW 9.2 mph - N/A   Clear
9:54 AM 64.4 °F - 30.2 °F 28% 30.24 in 10.0 mi WSW 8.1 mph - N/A   Clear
10:15 AM 66.2 °F - 24.8 °F 21% 30.23 in 10.0 mi WSW 12.7 mph - N/A   Clear
10:35 AM 66.2 °F - 24.8 °F 21% 30.22 in 10.0 mi West 10.4 mph 20.7 mph N/A   Clear
11:14 AM 69.8 °F - 26.6 °F 20% 30.22 in 10.0 mi West 10.4 mph 19.6 mph N/A   Clear
11:34 AM 69.8 °F - 26.6 °F 20% 30.21 in 10.0 mi West 13.8 mph 19.6 mph N/A   Clear
12:14 PM 69.8 °F - 28.4 °F 21% 30.20 in 10.0 mi West 9.2 mph 19.6 mph N/A   Clear
12:34 PM 69.8 °F - 26.6 °F 20% 30.20 in 10.0 mi West 13.8 mph 21.9 mph N/A   Clear
12:55 PM 71.6 °F - 28.4 °F 20% 30.19 in 10.0 mi West 12.7 mph 21.9 mph N/A   Clear
1:14 PM 73.4 °F - 28.4 °F 19% 30.18 in 10.0 mi West 15.0 mph 21.9 mph N/A   Clear
1:34 PM 71.6 °F - 26.6 °F 19% 30.17 in 10.0 mi West 12.7 mph 23.0 mph N/A   Clear
1:54 PM 71.6 °F - 26.6 °F 19% 30.17 in 10.0 mi West 15.0 mph 18.4 mph N/A   Clear
2:15 PM 73.4 °F - 28.4 °F 19% 30.16 in 10.0 mi West 9.2 mph 20.7 mph N/A   Clear
2:34 PM 73.4 °F - 30.2 °F 20% 30.15 in 10.0 mi West 10.4 mph 20.7 mph N/A   Clear
2:55 PM 73.4 °F - 28.4 °F 19% 30.14 in 10.0 mi WSW 17.3 mph 23.0 mph N/A   Clear
3:14 PM 73.4 °F - 30.2 °F 20% 30.13 in 10.0 mi West 9.2 mph - N/A   Clear
3:35 PM 75.2 °F - 30.2 °F 19% 30.12 in 10.0 mi West 12.7 mph 24.2 mph N/A   Clear
3:55 PM 75.2 °F - 28.4 °F 18% 30.11 in 10.0 mi West 15.0 mph 18.4 mph N/A   Clear
4:14 PM 75.2 °F - 30.2 °F 19% 30.10 in 10.0 mi West 12.7 mph 20.7 mph N/A   Clear
4:34 PM 75.2 °F - 26.6 °F 17% 30.10 in 10.0 mi WSW 15.0 mph 23.0 mph N/A   Clear
4:54 PM 75.2 °F - 26.6 °F 17% 30.09 in 10.0 mi West 17.3 mph - N/A   Clear
5:14 PM 75.2 °F - 28.4 °F 18% 30.08 in 10.0 mi WSW 13.8 mph 20.7 mph N/A   Clear
5:34 PM 75.2 °F - 26.6 °F 17% 30.08 in 10.0 mi West 16.1 mph 20.7 mph N/A   Clear
6:14 PM 75.2 °F - 28.4 °F 18% 30.07 in 10.0 mi WSW 18.4 mph 24.2 mph N/A   Clear
6:34 PM 75.2 °F - 28.4 °F 18% 30.07 in 10.0 mi WSW 17.3 mph - N/A   Clear
6:55 PM 73.4 °F - 30.2 °F 20% 30.06 in 10.0 mi West 16.1 mph - N/A   Clear
7:14 PM 73.4 °F - 32.0 °F 22% 30.06 in 10.0 mi West 11.5 mph - N/A   Clear
7:34 PM 71.6 °F - 33.8 °F 25% 30.06 in 10.0 mi West 10.4 mph - N/A   Clear
7:54 PM 69.8 °F - 33.8 °F 27% 30.06 in 10.0 mi WSW 9.2 mph - N/A   Clear
8:14 PM 68.0 °F - 35.6 °F 30% 30.06 in 10.0 mi WSW 5.8 mph - N/A   Clear
8:34 PM 64.4 °F - 35.6 °F 34% 30.06 in 10.0 mi SW 5.8 mph - N/A   Clear
9:14 PM 64.4 °F - 35.6 °F 34% 30.06 in 10.0 mi SW 6.9 mph - N/A   Clear
9:34 PM 64.4 °F - 35.6 °F 34% 30.06 in 10.0 mi SW 8.1 mph - N/A   Clear
9:54 PM 64.4 °F - 35.6 °F 34% 30.06 in 10.0 mi SW 9.2 mph - N/A   Clear
10:14 PM 62.6 °F - 35.6 °F 37% 30.06 in 10.0 mi SSW 6.9 mph - N/A   Clear
10:34 PM 62.6 °F - 37.4 °F 39% 30.05 in 10.0 mi Calm Calm - N/A   Clear
10:54 PM 62.6 °F - 39.2 °F 42% 30.05 in 10.0 mi SSW 10.4 mph - N/A   Clear
11:14 PM 60.8 °F - 42.8 °F 52% 30.04 in 10.0 mi SW 10.4 mph - N/A   Clear
11:34 PM 60.8 °F - 42.8 °F 52% 30.04 in 10.0 mi SW 11.5 mph - N/A   Clear
11:54 PM 60.8 °F - 41.0 °F 48% 30.03 in 10.0 mi SW 12.7 mph - N/A   Clear